CZ-4B DEB, 49046

Orbit data source: Space-Track

CZ-4B DEB, 49046 is space debris in SSO originally from a launch on Sun, 27 Sep 2020 UTC launched from the Taiyaun Space Center, China (TSC). Debris objects in space refer to the collection of defunct objects orbiting the Earth. Examples of debris include non-operational satellites, rocket bodies, and fragments generated from explosions, collisions, or faulty payload assembly.

Loading next visibility...
Identifier
49046, 2020-067H
Orbit
SSO
Country
Flag of CNCN / PRC
Related business
Manufacturer
SAST
Mission
Spacecraft
Bus & Motor
Unknown
Mass
Unknown
Launch date (UTC)
2020-09-27 (6 years ago)
Launch vehicle
Unknown
Launch site
Taiyaun Space Center, China (TSC)
Object type
Payload
Rocket body
Debris
Shape & HBR
Unknown shape, 0.1 m
Radar Cross Section
Small (<0.1 m²)

Expand to show TLE details & history
Last TLE update: 18 hours ago

TLE from 18 hours ago
0 CZ-4B DEB
1 49046U 20067H   26093.60454303  .00003859  00000-0  55176-3 0  9995
2 49046  97.7463 133.5272 0029866 174.3119 185.8437 14.76894596272872
Epoch: 2026-04-03T14:30Z
TLE epoch observation values (Epoch: 2026-04-03T14:30:32.517Z)
Latitude
-0.00002°
Longitude
83.95543°
Altitude
663.019 km
Speed
7.515 km/s
True Right ascension
08h 54m 06s
True Declination
0° 00' 00"
Sunlit
Object was in full shadow at epoch
Visualization orbit readout
Latitude
Unknown
Longitude
Unknown
Altitude
Unknown
Speed
Unknown
Apparent Right ascension
Unknown
Apparent Declination
Unknown
Sunlit
N/A
Visualization observer readout
Local Sidereal Time
14:30:04
Azimuth
Unknown
Elevation
Unknown
Doppler factor
Unknown
Orbital elements
Apogee altitude
657.131 km
Perigee altitude
615.233 km
Semi-major axis
7,014.319 km
Eccentricity
0.00299
Inclination
97.7463°
RAAN
133.5272°
Arg. of periapsis
174.3119°
True anomaly
185.80898°
Mean anomaly
185.8437°
Eccentric anomaly
185.82633°
Mean motion
3.69458 °/min
Orbital period
97.44 mins
BSTAR
0.00055176
Loading maneuver chart data...
Computing Atmospheric mass density...
Loading historical data...
Loading historical data...
Loading historical data...
Loading historical data...
Loading historical data...
Loading historical data...
Loading historical data...

Documentation

Showing up to 5 results
|